This is the latest recevied weather packets stored in our database for station/object KE6YLF. If no packets are shown the sender has not sent any weather packets the latest 10 day(s).
| Time | Temp. | Humidity | Pressure | Rain* | Wind** | Luminosity | Snow |
|---|---|---|---|---|---|---|---|
| 1788148413 | 88° F | 40% | 806.6 mmHg | 0 in | - | - | - |
| 1788148108 | 88° F | 42% | 806.8 mmHg | 0 in | - | - | - |
| 1788147804 | 87° F | 43% | 806.8 mmHg | 0 in | - | - | - |
| 1788147499 | 87° F | 43% | 806.7 mmHg | 0 in | - | - | - |
| 1788147198 | 87° F | 43% | 806.8 mmHg | 0 in | - | - | - |
| 1788146894 | 87° F | 44% | 806.8 mmHg | 0 in | - | - | - |
| 1788146588 | 86° F | 45% | 806.8 mmHg | 0 in | - | - | - |
| 1788146284 | 86° F | 46% | 806.8 mmHg | 0 in | - | - | - |
| 1788145983 | 86° F | 47% | 806.8 mmHg | 0 in | - | - | - |
| 1788145678 | 86° F | 48% | 806.6 mmHg | 0 in | - | - | - |
| 1788145376 | 85° F | 50% | 806.6 mmHg | 0 in | - | - | - |
| 1788145075 | 84° F | 52% | 806.8 mmHg | 0 in | - | - | - |
| 1788144770 | 84° F | 56% | 806.8 mmHg | 0 in | - | - | - |
| 1788144466 | 83° F | 57% | 806.8 mmHg | 0 in | - | - | - |
| 1788144165 | 83° F | 58% | 806.8 mmHg | 0 in | - | - | - |
| 1788143864 | 84° F | 56% | 806.7 mmHg | 0 in | - | - | - |
| 1788143563 | 84° F | 56% | 806.7 mmHg | 0 in | - | - | - |
| 1788143258 | 89° F | 49% | 806.7 mmHg | 0 in | - | - | - |
| 1788142957 | 89° F | 48% | 806.5 mmHg | 0 in | - | - | - |
| 1788142653 | 89° F | 48% | 806.2 mmHg | 0 in | - | - | - |
| 1788142352 | 91° F | 44% | 806.1 mmHg | 0 in | - | - | - |
| 1788142049 | 91° F | 44% | 805.9 mmHg | 0 in | - | - | - |
| 1788141747 | 93° F | 42% | 805.8 mmHg | 0 in | - | - | - |
| 1788141443 | 95° F | 39% | 805.3 mmHg | 0 in | - | - | - |
| 1788141139 | 96° F | 39% | 805.2 mmHg | 0 in | - | - | - |
* Rain latest hour (hover to see other rain measurements)
** Current wind speed in m/s (hover to see current wind gust speed)